User: anonymous   Login
Location: Mat�lon
(46.2791°N, 7.1028°E)
Time: 21:04:26
(UTC+00:00)
Language:

NOSS 8 (F) - Orbit

View from above orbital plane
View from above orbital plane
View from above satellite
View from above satellite

Ground track
Ground track

The orbit data is extracted from the following two-line orbital elements,

1 18010U 87043F   20331.60661420  .00000904  00000-0  88998-4 0  9995
2 18010  63.3042  65.3997 0940657  66.4762 303.2206 13.46309795 69212
Epoch (UTC): 26 November 2020 14:33:31
Eccentricity: 0.0940657
inclination: 63.3042°
perigee height: 384 km
apogee height: 1788 km
right ascension of ascending node: 65.3997°
argument of perigee: 66.4762°
revolutions per day: 13.46309795
mean anomaly at epoch: 303.2206°
orbit number at epoch: 6921

The dashed part of the orbit path shows where the satellite is in the earth's shadow,  

DLR